EN

Hourly Weather Ameyalco

Today, 28 January, Thursday

Time Temperature Precipitation Wind Pressure Humidity
00:00 +9°C° 0 mm 2 mps 550 mmHg 83%
01:00 +9°C° 0 mm 2 mps 550 mmHg 83%
02:00 +8°C° 0 mm 2 mps 549 mmHg 83%
03:00 +8°C° 0 mm 2 mps 549 mmHg 83%
04:00 +7°C° 0 mm 2 mps 549 mmHg 82%
05:00 +7°C° 0 mm 2 mps 549 mmHg 82%
06:00 +8°C° 0 mm 2 mps 550 mmHg 77%
07:00 +8°C° 0 mm 2 mps 550 mmHg 73%
08:00 +9°C° 0 mm 2 mps 551 mmHg 69%
09:00 +12°C° 0 mm 2 mps 552 mmHg 62%
10:00 +13°C° 0 mm 2 mps 553 mmHg 55%
11:00 +15°C° 0 mm 2 mps 553 mmHg 48%
12:00 +16°C° 0 mm 2 mps 553 mmHg 45%
13:00 +17°C° 0 mm 2 mps 553 mmHg 42%
14:00 +18°C° 0 mm 2 mps 553 mmHg 40%
15:00 +17°C° 0 mm 2 mps 553 mmHg 45%
16:00 +16°C° 0 mm 2 mps 552 mmHg 50%
17:00 +15°C° 0 mm 1 mps 551 mmHg 56%
18:00 +13°C° 0 mm 1 mps 551 mmHg 62%
19:00 +12°C° 0 mm 1 mps 551 mmHg 69%
20:00 +11°C° 0 mm 1 mps 551 mmHg 75%
21:00 +10°C° 0 mm 1 mps 551 mmHg 79%
22:00 +9°C° 0 mm 1 mps 550 mmHg 82%
23:00 +9°C° 0 mm 1 mps 550 mmHg 86%

Tomorrow, 29 January, Friday

Time Temperature Precipitation Wind Pressure Humidity
00:00 +9°C° 0 mm 1 mps 549 mmHg 87%
01:00 +8°C° 0 mm 1 mps 549 mmHg 89%
02:00 +8°C° 0 mm 1 mps 549 mmHg 90%
03:00 +8°C° 0 mm 1 mps 548 mmHg 90%
04:00 +7°C° 0 mm 1 mps 548 mmHg 89%
05:00 +7°C° 0 mm 1 mps 548 mmHg 89%
06:00 +7°C° 0 mm 0 mps 549 mmHg 83%
07:00 +9°C° 0 mm 0 mps 550 mmHg 77%
08:00 +10°C° 0 mm 0 mps 551 mmHg 71%
09:00 +12°C° 0 mm 0 mps 552 mmHg 61%
10:00 +16°C° 0 mm 1 mps 553 mmHg 51%
11:00 +19°C° 0 mm 1 mps 554 mmHg 41%
12:00 +19°C° 0 mm 1 mps 553 mmHg 39%
13:00 +20°C° 0 mm 1 mps 552 mmHg 37%
14:00 +20°C° 0 mm 1 mps 552 mmHg 35%
15:00 +19°C° 0 mm 1 mps 551 mmHg 42%
16:00 +17°C° 0 mm 2 mps 550 mmHg 48%
17:00 +16°C° 0 mm 2 mps 550 mmHg 54%
18:00 +15°C° 0 mm 2 mps 549 mmHg 60%
19:00 +13°C° 0 mm 1 mps 549 mmHg 65%
20:00 +12°C° 0 mm 1 mps 549 mmHg 70%
21:00 +12°C° 0 mm 1 mps 549 mmHg 70%
22:00 +12°C° 0 mm 1 mps 549 mmHg 70%
23:00 +11°C° 0 mm 0 mps 549 mmHg 70%

Day after tomorrow, 30 January, Saturday

Time Temperature Precipitation Wind Pressure Humidity
00:00 +10°C° 0 mm 0 mps 549 mmHg 72%
01:00 +10°C° 0 mm 0 mps 548 mmHg 73%
02:00 +9°C° 0 mm 0 mps 547 mmHg 75%
03:00 +9°C° 0 mm 0 mps 547 mmHg 76%
04:00 +9°C° 0 mm 0 mps 547 mmHg 77%
05:00 +8°C° 0 mm 0 mps 547 mmHg 78%
06:00 +10°C° 0 mm 0 mps 548 mmHg 72%
07:00 +11°C° 0 mm 0 mps 549 mmHg 66%
08:00 +12°C° 0 mm 0 mps 550 mmHg 59%
09:00 +15°C° 0 mm 0 mps 551 mmHg 50%
10:00 +19°C° 0 mm 1 mps 551 mmHg 42%
11:00 +21°C° 0 mm 1 mps 552 mmHg 33%
12:00 +20°C° 0 mm 2 mps 552 mmHg 31%
13:00 +21°C° 0 mm 2 mps 551 mmHg 29%
14:00 +21°C° 0 mm 2 mps 551 mmHg 27%
15:00 +20°C° 0 mm 2 mps 550 mmHg 31%
16:00 +19°C° 0 mm 2 mps 550 mmHg 34%
17:00 +19°C° 0 mm 1 mps 549 mmHg 38%
18:00 +18°C° 0 mm 1 mps 549 mmHg 44%
19:00 +15°C° 0 mm 1 mps 549 mmHg 50%
20:00 +13°C° 0 mm 1 mps 548 mmHg 57%
21:00 +13°C° 0 mm 1 mps 548 mmHg 58%
22:00 +12°C° 0 mm 1 mps 548 mmHg 60%
23:00 +12°C° 0 mm 1 mps 548 mmHg 61%

31 January, Sunday

Time Temperature Precipitation Wind Pressure Humidity
00:00 +12°C° 0 mm 1 mps 548 mmHg 62%
01:00 +10°C° 0 mm 0 mps 548 mmHg 62%
02:00 +10°C° 0 mm 0 mps 547 mmHg 63%
03:00 +9°C° 0 mm 0 mps 547 mmHg 63%
04:00 +9°C° 0 mm 0 mps 547 mmHg 64%
05:00 +9°C° 0 mm 0 mps 547 mmHg 64%
06:00 +10°C° 0 mm 0 mps 548 mmHg 59%
07:00 +12°C° 0 mm 0 mps 549 mmHg 54%
08:00 +14°C° 0 mm 1 mps 550 mmHg 48%
09:00 +16°C° 0 mm 1 mps 551 mmHg 42%
10:00 +19°C° 0 mm 1 mps 552 mmHg 35%
11:00 +20°C° 0 mm 2 mps 553 mmHg 28%
12:00 +21°C° 0 mm 2 mps 552 mmHg 27%
13:00 +21°C° 0 mm 2 mps 552 mmHg 26%
14:00 +21°C° 0 mm 3 mps 551 mmHg 24%
15:00 +20°C° 0 mm 3 mps 551 mmHg 27%
16:00 +19°C° 0 mm 3 mps 550 mmHg 30%
17:00 +18°C° 0 mm 3 mps 550 mmHg 33%
18:00 +16°C° 0 mm 3 mps 550 mmHg 41%
19:00 +15°C° 0 mm 2 mps 550 mmHg 50%
20:00 +13°C° 0 mm 2 mps 549 mmHg 58%
21:00 +12°C° 0 mm 2 mps 549 mmHg 66%
22:00 +10°C° 0 mm 2 mps 549 mmHg 73%
23:00 +9°C° 0 mm 2 mps 549 mmHg 81%

1 February, Monday

Time Temperature Precipitation Wind Pressure Humidity
00:00 +9°C° 0 mm 2 mps 549 mmHg 82%
01:00 +8°C° 0 mm 2 mps 548 mmHg 82%
02:00 +8°C° 0 mm 2 mps 548 mmHg 83%
03:00 +7°C° 0 mm 2 mps 548 mmHg 83%
04:00 +7°C° 0 mm 2 mps 548 mmHg 83%
05:00 +6°C° 0 mm 2 mps 548 mmHg 84%
06:00 +8°C° 0 mm 2 mps 548 mmHg 78%
07:00 +10°C° 0 mm 1 mps 549 mmHg 73%
08:00 +11°C° 0 mm 1 mps 550 mmHg 68%
09:00 +13°C° 0 mm 2 mps 551 mmHg 59%
10:00 +15°C° 0 mm 2 mps 552 mmHg 49%
11:00 +17°C° 0 mm 2 mps 553 mmHg 40%
12:00 +18°C° 0 mm 2 mps 553 mmHg 37%
13:00 +18°C° 0 mm 2 mps 552 mmHg 34%
14:00 +19°C° 0 mm 2 mps 552 mmHg 31%
15:00 +18°C° 0 mm 2 mps 551 mmHg 34%
16:00 +17°C° 0 mm 2 mps 551 mmHg 37%
17:00 +16°C° 0 mm 2 mps 550 mmHg 40%
18:00 +14°C° 0 mm 1 mps 550 mmHg 49%
19:00 +13°C° 0 mm 1 mps 549 mmHg 58%
20:00 +11°C° 0 mm 1 mps 549 mmHg 67%
21:00 +11°C° 0 mm 1 mps 549 mmHg 71%
22:00 +9°C° 0 mm 0 mps 549 mmHg 74%
23:00 +9°C° 0 mm 0 mps 548 mmHg 77%

2 February, Tuesday

Time Temperature Precipitation Wind Pressure Humidity
00:00 +8°C° 0 mm 0 mps 548 mmHg 79%
01:00 +8°C° 0 mm 0 mps 548 mmHg 81%
02:00 +7°C° 0 mm 0 mps 547 mmHg 82%
03:00 +7°C° 0 mm 0 mps 547 mmHg 82%
04:00 +7°C° 0 mm 0 mps 547 mmHg 81%
05:00 +7°C° 0 mm 0 mps 547 mmHg 81%
06:00 +8°C° 0 mm 0 mps 548 mmHg 69%
07:00 +11°C° 0 mm 1 mps 549 mmHg 58%
08:00 +12°C° 0 mm 1 mps 550 mmHg 47%
09:00 +15°C° 0 mm 1 mps 551 mmHg 37%
10:00 +17°C° 0 mm 2 mps 551 mmHg 28%
11:00 +19°C° 0 mm 2 mps 552 mmHg 19%
12:00 +20°C° 0 mm 2 mps 552 mmHg 18%
13:00 +20°C° 0 mm 2 mps 551 mmHg 17%
14:00 +21°C° 0 mm 3 mps 551 mmHg 16%
15:00 +20°C° 0 mm 2 mps 550 mmHg 20%
16:00 +19°C° 0 mm 2 mps 550 mmHg 24%
17:00 +17°C° 0 mm 2 mps 549 mmHg 28%
18:00 +16°C° 0 mm 1 mps 548 mmHg 34%
19:00 +14°C° 0 mm 1 mps 548 mmHg 40%
20:00 +12°C° 0 mm 1 mps 548 mmHg 47%
21:00 +12°C° 0 mm 1 mps 548 mmHg 48%
22:00 +10°C° 0 mm 0 mps 547 mmHg 49%
23:00 +10°C° 0 mm 0 mps 547 mmHg 50%
Show more